Flag for U.S.A. Weather past 2 weeks in Detroit, Michigan, U.S.A.

Now
37 °F

Overcast.


Feels Like: 29 °F
Forecast: 15 / 35 °F
Wind: 13 mph from West

Location: Detroit City Airport

Current Time: Mar 3, 2015 at 7:32:10 PM

Latest Report: Mar 3, 2015 at 6:53 PM


Visibility: 7 mi

Pressure: 29.62 "Hg

Humidity: 82%

Dew point: 32 °F

Location of DetroitLocation

Historic Weather in Detroit — Graph

°F

Detroit temperature yesterday

Maximum temperature yesterday: 34 °F (at 2:53 PM)
Minimum temperature yesterday: 23 °F (at 6:53 AM)
Average temperature yesterday: 27 °F

Past Weeks' High & Low Weather Summary

 TemperatureHumidityPressure
High36 °F (Mar 3, 5:53 PM)87% (Feb 21, 8:53 PM)30.98 "Hg (Feb 21, 8:53 PM)
Low-9 °F (Feb 20, 6:53 AM)34% (Feb 27, 3:53 PM)28.11 "Hg (Mar 1, 1:53 PM)
Average14 °F61%30.21 "Hg
* Reported Feb 16 5:53 PM — Mar 3 5:53 PM, Detroit, Weather by CustomWeather, © 2015

Note: Actual official high and low records may vary slightly from our data, if they occured in-between our weather recording intervals... More about our weather records

Advertising

Detroit weather history for previous 24 hours

 ConditionsComfort  
Time TempWeatherWind HumidityBarometerVisibility
5:53 PM
Tue, Mar 3
36 °FFog.15 mph85%29.60 "Hg3 mi
4:53 PM34 °FFog.12 mph85%29.62 "Hg1 mi
3:53 PM32 °FIce fog.15 mph85%29.62 "Hg3 mi
2:57 PM31 °FLow clouds.17 mph79%29.63 "Hg4 mi
1:53 PM30 °FMostly cloudy.14 mph75%29.73 "Hg5 mi
12:53 PM30 °FLight freezing rain. Cloudy.17 mph79%29.82 "Hg4 mi
11:53 AM28 °FLight freezing rain. More clouds than sun.14 mph81%29.92 "Hg3 mi
10:53 AM25 °FLight freezing rain. Cloudy.13 mph81%29.98 "Hg0 mi
9:53 AM23 °FSnow. Ice fog.12 mph85%30.09 "Hg0 mi
8:53 AM23 °FSnow. Ice fog.12 mph85%30.15 "Hg0 mi
7:53 AM23 °FLight snow. Ice fog.7 mph74%30.19 "Hg1 mi
6:53 AM24 °FMostly cloudy.8 mph68%30.19 "Hg9 mi
5:53 AM24 °FOvercast.6 mph68%30.24 "Hg7 mi
4:53 AM25 °FPartly cloudy.5 mph69%30.26 "Hg7 mi
3:53 AM25 °FMostly cloudy.5 mph69%30.30 "Hg7 mi
2:53 AM26 °FMostly cloudy.5 mph63%30.32 "Hg8 mi
1:53 AM25 °FPassing clouds.5 mph66%30.35 "Hg7 mi
12:53 AM24 °FClear.6 mph65%30.36 "Hg8 mi
11:53 PM
Mon, Mar 2
25 °FClear.6 mph63%30.37 "Hg10 mi
10:53 PM23 °FClear.No wind65%30.40 "Hg10 mi
9:53 PM23 °FClear.3 mph63%30.42 "Hg10 mi
8:53 PM24 °FClear.No wind55%30.43 "Hg10 mi
7:53 PM29 °FClear.3 mph45%30.43 "Hg10 mi
Weather by CustomWeather, © 2015

See weather overviewHow to use our weather pages